Tracking 19792 objects as of 16-Jul-2019
HD Live streaming from Space Station
objects crossing your sky now

THORAD AGENA D DEB

Track THORAD AGENA D DEB now!
10-day predictions


NORAD ID: 20360
Int'l Code: 1970-025QF
Perigee: 930.8 km
Apogee: 977.6 km
Inclination: 100.4 °
Period: 104.0 minutes
Semi major axis: 7325 km
RCS: 0.0096 m2 (small)
Launch date: April 8, 1970
Source: United States (US)
Launch site: AIR FORCE WESTERN TEST RANGE (AFWTR)

Note: This is SATELLITE DEBRIS
aabbcc
Your satellite tracking list
Your tracking list is empty




NASA's NSSDC Master Catalog

Two Line Element Set (TLE):
1 20360U 70025QF  19196.85168437  .00000922  00000-0  86288-3 0  9991
2 20360 100.4306 152.2879 0031992 347.9453  39.4105 13.84757235480009
Source of the keplerian elements: AFSPC